GW5292 Weather Reports


time (UTC)temp
C
wind
direction
speed
KPH
gust
KPH
rain 1hr
cm
rain 24hr
cm
rain mn
cm
humidity
%
barometer
mb
20260902173015 21 333 0.0 0.0 0.15 0.91 0.15 94 1019.8
20260902171518 21 333 0.0 3.2 0.13 0.89 0.13 94 1020.0
20260902170018 21 244 0.0 1.6 0.08 0.84 0.08 93 1019.9
20260902164516 22 244 0.0 3.2 0.03 0.79 0.03 92 1020.1
20260902163018 22 161 0.0 3.2 0.00 0.76 0.00 90 1020.3
20260902161520 22 213 0.0 3.2 0.00 0.76 0.00 91 1020.3
20260902160012 22 88 0.0 6.4 0.00 0.76 0.00 91 1020.1
20260902154511 22 40 0.0 4.8 0.00 0.76 0.00 91 1020.1
20260902153016 22 315 1.6 3.2 0.00 0.76 0.00 91 1019.9
20260902151520 21 338 1.6 4.8 0.00 0.76 0.00 92 1019.4
20260902150006 21 72 1.6 3.2 0.00 0.76 0.00 92 1019.6
20260902144510 21 340 1.6 6.4 0.00 0.76 0.00 92 1020.0
20260902143015 21 214 0.0 3.2 0.00 0.76 0.00 93 1020.0
20260902141533 21 14 1.6 3.2 0.00 0.76 0.00 93 1019.9
20260902140004 21 30 1.6 4.8 0.00 0.76 0.00 93 1020.0
20260902134510 21 32 1.6 6.4 0.00 0.76 0.00 93 1019.9
20260902133011 21 248 0.0 4.8 0.00 0.76 0.00 93 1019.7
20260902131522 21 36 1.6 6.4 0.00 0.76 0.00 94 1019.6
20260902130026 21 20 1.6 4.8 0.00 0.76 0.00 94 1019.5
20260902124507 21 275 0.0 3.2 0.00 0.76 0.00 94 1019.2
20260902123010 21 142 0.0 3.2 0.00 0.76 0.00 95 1019.2
20260902121519 21 38 0.0 3.2 0.00 0.76 0.00 96 1019.0
20260902120024 21 39 1.6 8.0 0.00 0.76 0.00 96 1018.8
20260902114534 21 280 0.0 3.2 0.00 0.76 0.00 96 1018.8
20260902113009 21 23 0.0 3.2 0.00 0.76 0.00 97 1019.0
20260902111515 21 31 0.0 3.2 0.00 0.76 0.00 97 1018.6
20260902110023 21 35 0.0 1.6 0.00 0.76 0.00 97 1018.5
20260902104537 21 338 0.0 3.2 0.00 0.76 0.00 97 1018.8
20260902103030 21 338 0.0 0.0 0.00 0.76 0.00 97 1018.7
20260902101510 21 338 0.0 0.0 0.00 0.76 0.00 97 1018.5
20260902100029 21 338 0.0 1.6 0.00 0.76 0.00 97 1018.3
20260902094524 21 334 0.0 3.2 0.00 0.76 0.00 97 1018.3
20260902093027 21 338 0.0 0.0 0.00 0.76 0.00 97 1018.2
20260902091541 20 338 0.0 0.0 0.00 0.76 0.00 97 1018.1
20260902090013 20 337 0.0 0.0 0.00 0.76 0.00 97 1018.1
20260902084520 20 337 0.0 0.0 0.00 0.76 0.00 97 1018.1
20260902083025 20 338 0.0 0.0 0.00 0.76 0.00 97 1017.8
20260902081532 20 338 0.0 0.0 0.00 0.76 0.00 97 1017.6
20260902080034 20 338 0.0 1.6 0.00 0.76 0.00 96 1017.4
20260902074517 20 348 1.6 3.2 0.00 0.76 0.00 97 1017.3
20260902073024 20 24 1.6 3.2 0.00 0.76 0.00 96 1017.1
20260902071529 20 348 1.6 1.6 0.00 0.76 0.00 96 1017.0
20260902070033 20 348 0.0 0.0 0.00 0.76 0.00 96 1017.0
20260902064534 20 348 0.0 0.0 0.00 0.76 0.00 96 1017.2
20260902063023 20 348 0.0 3.2 0.00 0.76 0.00 96 1017.0
20260902061530 21 348 0.0 3.2 0.00 0.76 0.00 96 1017.3
20260902060016 21 348 0.0 0.0 0.00 0.76 0.00 96 1017.3
20260902054513 21 348 0.0 1.6 0.00 0.76 0.00 96 1017.5
20260902053032 21 348 0.0 3.2 0.00 0.76 0.00 96 1017.5
20260902051529 21 348 0.0 3.2 0.00 0.76 0.00 96 1017.6
20260902050005 21 348 0.0 0.0 0.00 0.76 0.00 96 1017.3
20260902044511 21 348 0.0 3.2 0.00 0.76 0.00 96 1017.1
20260902043017 21 296 0.0 3.2 0.00 0.76 0.00 96 1017.4
20260902041524 21 296 0.0 3.2 0.00 0.76 0.00 96 1017.5
20260902040028 21 250 0.0 0.0 0.00 0.76 0.00 96 1017.4
20260902034507 21 250 0.0 0.0 0.00 0.76 0.76 96 1017.3
20260902033023 21 251 0.0 0.0 0.00 0.76 0.76 96 1016.8
20260902031518 21 202 0.0 0.0 0.00 0.79 0.76 96 1016.1
20260902030026 21 202 0.0 0.0 0.00 0.79 0.76 96 1015.8
20260902024528 21 202 0.0 3.2 0.00 0.79 0.76 96 1015.9
20260902023008 21 202 0.0 1.6 0.00 0.79 0.76 96 1015.7
20260902021518 21 202 0.0 3.2 0.00 0.79 0.76 96 1015.4
20260902020023 21 202 0.0 3.2 0.00 0.79 0.76 96 1015.6
20260902014535 21 210 0.0 1.6 0.00 0.79 0.76 96 1015.4
20260902013033 21 201 0.0 3.2 0.00 0.79 0.76 95 1015.3
20260902011527 21 201 0.0 3.2 0.00 0.79 0.76 96 1015.1
20260902010036 22 201 0.0 3.2 0.00 0.79 0.76 95 1015.4
20260902004533 22 201 0.0 3.2 0.00 0.79 0.76 95 1015.1
20260902003034 22 352 0.0 3.2 0.03 0.79 0.76 95 1015.1
20260902001533 22 206 0.0 3.2 0.28 0.79 0.76 95 1015.1
20260902000027 22 95 0.0 4.8 0.46 0.79 0.76 93 1015.4
20260901234554 22 55 3.2 8.0 0.48 0.79 0.76 93 1015.2
20260901233028 22 352 4.8 8.0 0.71 0.76 0.74 92 1015.5
20260901231545 23 146 1.6 6.4 0.48 0.51 0.48 89 1015.6
20260901230043 23 200 3.2 4.8 0.30 0.33 0.30 90 1013.6
20260901224530 25 200 4.8 9.7 0.28 0.30 0.28 84 1013.8
20260901223035 28 184 0.0 8.0 0.03 0.05 0.03 79 1013.5
20260901221535 30 194 0.0 3.2 0.00 0.03 0.00 75 1013.6
20260901220036 30 194 0.0 1.6 0.00 0.03 0.00 74 1013.0
20260901214531 31 194 1.6 1.6 0.00 0.03 0.00 71 1013.0
20260901213023 31 194 0.0 3.2 0.00 0.03 0.00 72 1013.3
20260901211536 31 194 0.0 6.4 0.00 0.03 0.00 69 1013.5
20260901210008 31 211 3.2 6.4 0.00 0.03 0.00 68 1013.2
20260901204517 31 205 3.2 6.4 0.00 0.03 0.00 70 1013.3
20260901203025 31 183 4.8 8.0 0.00 0.03 0.00 69 1013.5
20260901201526 31 192 1.6 4.8 0.00 0.03 0.00 69 1013.7
20260901200020 31 208 1.6 8.0 0.00 0.03 0.00 70 1013.7
20260901194511 31 182 4.8 8.0 0.00 0.03 0.00 71 1013.9
20260901193018 31 175 3.2 8.0 0.00 0.03 0.00 72 1014.0
20260901191530 30 200 3.2 9.7 0.00 0.05 0.00 71 1014.0
20260901190034 31 208 3.2 6.4 0.00 0.08 0.00 71 1014.2
20260901184508 30 199 1.6 9.7 0.00 0.08 0.00 72 1014.3
20260901183032 30 190 3.2 9.7 0.00 0.08 0.00 72 1014.2
20260901181523 30 187 3.2 8.0 0.00 0.08 0.00 74 1014.2
20260901180028 29 213 4.8 8.0 0.00 0.08 0.00 75 1014.7
20260901174530 28 217 1.6 3.2 0.00 0.08 0.00 77 1014.6